{"data":{"norad_id":64485,"epoch":"2026-09-20T09:19:21.158976Z","epoch_age_seconds":140960,"freshness":"FRESH","line1":"1 64485U 25133P   26263.38843934  .00015570  00000+0  47099-3 0  9991","line2":"2 64485  53.1597 289.8887 0001264 101.7364 258.3781 15.34399979 71038","mean_motion":15.34399979,"eccentricity":0.0001264,"inclination_deg":53.1597,"raan_deg":289.8887,"arg_perigee_deg":101.7364,"mean_anomaly_deg":258.3781,"bstar":0.00047099,"rev_number":7103,"period_min":93.847759365747,"perigee_km":461.83862040928,"apogee_km":463.56798483778,"semimajor_km":6840.8403026235,"source":"CELESTRAK","updated_at":"2026-09-21T09:00:35.360706Z"}}